Cosmos 1455 - Orbit

View from above orbital plane
View from above orbital plane
View from above satellite
View from above satellite

Ground track
Ground track

The orbit data is extracted from the following two-line orbital elements,

1 14032U 83037A   13144.44828475  .00004285  00000-0  27612-3 0  2708
2 14032 082.4926 105.6243 0014300 030.1088 117.7701 15.08014180636818
Epoch (UTC): 24 May 2013 10:45:31
Eccentricity: 0.0014300
inclination: 82.4926°
perigee height: 532 km
apogee height: 552 km
right ascension of ascending node: 105.6243°
argument of perigee: 30.1088°
revolutions per day: 15.08014180
mean anomaly at epoch: 117.7701°
orbit number at epoch: 63681

The dashed part of the orbit path shows where the satellite is in the earth's shadow,  

Developed and maintained by Chris Peat, Heavens-Above GmbH. Please read the updated FAQ before sending e-mail. Imprint. DLR